Regional Weather Roundup
Issued by NWS

Home | Current Version | Previous Version | Text Only | Print | Product List | Glossary Off
Versions: 1 2 3 4 5 6 7 8 9 10 11 12 13 14 15 16 17 18 19 20 21 22 23 24 25 26 27 28 29 30 31 32 33 34 35 36 37 38 39 40 41 42 43 44 45 46 47 48 49 50

000
ASUS45 KSLC 020210
RWRUT

UTAH REGIONAL WEATHER ROUNDUP
NATIONAL WEATHER SERVICE SALT LAKE CITY UT
800 PM MDT TUE SEP 01 2015

UTZ001>011-023>025-020300-

NORTHERN UTAH

CITY           SKY/WX    TMP DP  RH WIND       PRES   REMARKS
BRIGHAM CITY   CLEAR     84  39  19 SE5       29.88F
HILL AFB       MOCLDY    83  46  27 NE2       29.93S
LOGAN          CLEAR     83  39  21 SE7       29.90S
OGDEN          CLEAR     85  43  22 NE6       29.90S
PROVO AIRPORT  PTCLDY    82  46  28 SE6       29.94S
SALT LAKE CITY MOCLDY    86  39  19 S6        29.87F
VERNAL         PTCLDY    72  42  34 E3        30.10R
WENDOVER       CLEAR     90  28  11 SW9       29.84S
HEBER CITY     PTCLDY    77  32  19 S7        30.03R
WEST JORDAN    CLEAR     84  37  18 S9        29.92S

$$

UTZ012>022-026-027-020300-

SOUTHERN/CENTRAL UTAH

CITY           SKY/WX    TMP DP  RH WIND       PRES   REMARKS
BLANDING       PTCLDY    78  43  29 SW3       30.21R
BRYCE CANYON   CLEAR     66  44  45 S8        30.26R
CEDAR CITY     PTCLDY    77  39  25 SW10      30.08R
DELTA          CLEAR     85  28  13 S17       29.96S
HANKSVILLE     MOCLDY    77  50  38 NE14G23   30.04R
MILFORD        CLEAR     83  31  15 SW15      30.00S
MOAB/CYNLANDS  PTCLDY    79  51  37 SE17      30.02R
PRICE          MOCLDY    69  44  40 VRB3      30.13S
ST GEORGE      PTCLDY    91  45  19 W14       29.89S
KANAB          CLEAR     72  57  60 CALM      30.12S

$$

REGIONAL REPORTS     COLORADO/ARIZONA

CITY           SKY/WX    TMP DP  RH WIND       PRES   REMARKS
CRAIG, CO      MOCLDY    66  42  41 CALM      30.18R
GRAND JUNCTION LGT RAIN  70  51  51 W17G28    30.11R
RIFLE          LGT RAIN  67  47  48 NW30G44   30.19R
MONTROSE       MOCLDY    75  49  39 W3        30.13R
CORTEZ         CLEAR     73  47  39 SW6       30.14R
PAGE, AZ       PTCLDY    84  48  28 S7        30.01R
GRAND CANYON   MOCLDY    66  53  63 E6        30.23R
KINGMAN        CLEAR     87  44  22 SW14      29.97S
FLAGSTAFF      MOCLDY    66  53  63 SW5       30.26F

$$

REGIONAL REPORTS    NEVADA/IDAHO/WYOMING

CITY           SKY/WX    TMP DP  RH WIND       PRES   REMARKS
LAS VEGAS, NV  PTCLDY    95  49  20 SW10      29.78S HX  92
ELY            CLEAR     77  22  13 SW12      30.06R
ELKO           CLEAR     84  25  11 NW10      29.89S
POCATELLO, ID  CLEAR     77  38  24 E5        29.87F
BURLEY         PTCLDY    78  47  33 CALM      29.82F
EVANSTON, WY   CLEAR     71  34  25 SW9       30.14R
ROCK SPRINGS   CLOUDY    66  45  46 SE6       30.14R
KEMMERER       PTCLDY   N/A N/A N/A SW7       30.15S

$$



USA.gov is the U.S. government's official web portal to all federal, state and local government web resources and services.